Вернуться в каталог

ONEWEB-0329

АктивенСвязьPO
NORAD 49107·PAYLOAD·🇬🇧 United Kingdom

Запущен Aug 21, 2021 с Baikonur Cosmodrome

Loading…

Ближайшие Пролёты (ближайшие 24 часа)

TLE

СвежийSource: CelesTrak SupGP

Эпоха: Sep 14, 2026, 13:58 UTC

1 49107C 21075AJ  26257.58246944  .00003041  00000+0  78415-2 0  2571
2 49107  87.9203 348.1159 0001814 106.9233   5.8077 13.17645759    17

Отслеживайте ONEWEB-0329 в реальном времени с AllMySat

Download on the App Store